Time,TemperatureF,DewpointF,PressureIn,WindDirection,WindDirectionDegrees,WindSpeedMPH,WindSpeedGustMPH,Humidity,HourlyPrecipIn,Conditions,Clouds,dailyrainin,SoftwareType,DateUTC
2013-11-03 00:01:00,42.1,38.5,30.19,North,355,0.0,-999.0,87,0.00,,,0.00,WeatherSnoop3.0,2013-11-03 05:01:00,
2013-11-03 00:06:00,42.0,38.4,30.19,North,355,0.0,-999.0,87,0.00,,,0.00,WeatherSnoop3.0,2013-11-03 05:06:00,
2013-11-03 00:11:00,42.0,38.4,30.19,North,355,0.0,-999.0,87,0.00,,,0.00,WeatherSnoop3.0,2013-11-03 05:11:00,
2013-11-03 00:16:00,41.9,38.3,30.19,North,355,0.0,-999.0,87,0.00,,,0.00,WeatherSnoop3.0,2013-11-03 05:16:00,
2013-11-03 00:22:00,41.8,38.5,30.19,North,355,0.0,-999.0,88,0.00,,,0.00,WeatherSnoop3.0,2013-11-03 05:22:00,
2013-11-03 00:27:00,41.8,38.5,30.19,North,355,0.0,-999.0,88,0.00,,,0.00,WeatherSnoop3.0,2013-11-03 05:27:00,
2013-11-03 00:32:00,41.7,38.4,30.19,North,355,0.0,-999.0,88,0.00,,,0.00,WeatherSnoop3.0,2013-11-03 05:32:00,
2013-11-03 00:37:00,41.6,38.3,30.19,North,355,0.0,-999.0,88,0.00,,,0.00,WeatherSnoop3.0,2013-11-03 05:37:00,
2013-11-03 00:42:00,41.5,38.2,30.19,North,355,0.0,-999.0,88,0.00,,,0.00,WeatherSnoop3.0,2013-11-03 05:42:00,
2013-11-03 00:47:00,41.4,38.1,30.19,North,355,0.0,-999.0,88,0.00,,,0.00,WeatherSnoop3.0,2013-11-03 05:47:00,
2013-11-03 00:52:00,41.3,38.0,30.19,North,355,0.0,-999.0,88,0.00,,,0.00,WeatherSnoop3.0,2013-11-03 05:52:00,
2013-11-03 00:57:00,41.2,38.2,30.19,North,355,0.0,-999.0,89,0.00,,,0.00,WeatherSnoop3.0,2013-11-03 05:57:00,
2013-11-03 01:02:00,41.2,38.2,30.19,North,355,0.0,-999.0,89,0.00,,,0.00,WeatherSnoop3.0,2013-11-03 06:02:00,
2013-11-03 01:07:00,41.1,38.1,30.19,North,355,0.0,-999.0,89,0.00,,,0.00,WeatherSnoop3.0,2013-11-03 06:07:00,
2013-11-03 01:12:00,41.1,38.1,30.19,North,355,0.0,-999.0,89,0.00,,,0.00,WeatherSnoop3.0,2013-11-03 06:12:00,
2013-11-03 01:17:00,41.0,38.0,30.18,North,355,0.0,-999.0,89,0.00,,,0.00,WeatherSnoop3.0,2013-11-03 06:17:00,
2013-11-03 01:23:00,41.0,37.7,30.18,North,355,0.0,-999.0,88,0.00,,,0.00,WeatherSnoop3.0,2013-11-03 06:23:00,
2013-11-03 01:28:00,41.0,38.0,30.18,North,355,0.0,-999.0,89,0.00,,,0.00,WeatherSnoop3.0,2013-11-03 06:28:00,
2013-11-03 01:33:00,40.9,37.6,30.18,North,355,0.0,-999.0,88,0.00,,,0.00,WeatherSnoop3.0,2013-11-03 06:33:00,
2013-11-03 01:38:00,40.9,37.6,30.18,North,355,0.0,-999.0,88,0.00,,,0.00,WeatherSnoop3.0,2013-11-03 06:38:00,
2013-11-03 01:43:00,40.8,37.8,30.18,North,355,0.0,-999.0,89,0.00,,,0.00,WeatherSnoop3.0,2013-11-03 06:43:00,
2013-11-03 01:48:00,40.7,37.7,30.18,North,355,0.0,-999.0,89,0.00,,,0.00,WeatherSnoop3.0,2013-11-03 06:48:00,
2013-11-03 01:53:00,40.7,37.7,30.18,North,355,0.0,-999.0,89,0.00,,,0.00,WeatherSnoop3.0,2013-11-03 06:53:00,
2013-11-03 01:58:00,40.7,37.4,30.18,North,355,0.0,-999.0,88,0.00,,,0.00,WeatherSnoop3.0,2013-11-03 06:58:00,
2013-11-03 01:03:00,40.8,37.5,30.17,North,355,0.0,-999.0,88,0.00,,,0.00,WeatherSnoop3.0,2013-11-03 07:03:00,
2013-11-03 01:08:00,41.0,37.4,30.18,North,355,0.0,-999.0,87,0.00,,,0.00,WeatherSnoop3.0,2013-11-03 07:08:00,
2013-11-03 01:13:00,41.1,37.2,30.18,North,355,0.0,-999.0,86,0.00,,,0.00,WeatherSnoop3.0,2013-11-03 07:13:00,
2013-11-03 01:18:00,41.2,37.0,30.18,North,355,0.0,-999.0,85,0.00,,,0.00,WeatherSnoop3.0,2013-11-03 07:18:00,
2013-11-03 01:24:00,41.5,37.3,30.18,North,355,0.0,-999.0,85,0.00,,,0.00,WeatherSnoop3.0,2013-11-03 07:24:00,
2013-11-03 01:29:00,41.5,37.3,30.18,North,355,0.0,-999.0,85,0.00,,,0.00,WeatherSnoop3.0,2013-11-03 07:29:00,
2013-11-03 01:34:00,41.6,37.1,30.17,North,355,0.0,-999.0,84,0.00,,,0.00,WeatherSnoop3.0,2013-11-03 07:34:00,
2013-11-03 01:39:00,41.6,37.1,30.17,North,355,0.0,-999.0,84,0.00,,,0.00,WeatherSnoop3.0,2013-11-03 07:39:00,
2013-11-03 01:44:00,41.8,37.0,30.17,North,355,0.0,-999.0,83,0.00,,,0.00,WeatherSnoop3.0,2013-11-03 07:44:00,
2013-11-03 01:49:00,41.9,37.1,30.16,North,355,0.0,-999.0,83,0.00,,,0.00,WeatherSnoop3.0,2013-11-03 07:49:00,
2013-11-03 01:54:00,42.1,37.0,30.17,North,355,0.0,-999.0,82,0.00,,,0.00,WeatherSnoop3.0,2013-11-03 07:54:00,
2013-11-03 01:59:00,42.3,37.2,30.17,North,355,0.0,-999.0,82,0.00,,,0.00,WeatherSnoop3.0,2013-11-03 07:59:00,
2013-11-03 02:04:00,42.4,37.0,30.16,North,355,0.0,-999.0,81,0.00,,,0.00,WeatherSnoop3.0,2013-11-03 08:04:00,
2013-11-03 02:09:00,42.5,37.1,30.16,North,355,0.0,-999.0,81,0.00,,,0.00,WeatherSnoop3.0,2013-11-03 08:09:00,
2013-11-03 02:14:00,42.7,37.0,30.16,North,355,0.0,-999.0,80,0.00,,,0.00,WeatherSnoop3.0,2013-11-03 08:14:00,
2013-11-03 02:20:00,42.8,37.1,30.16,NNE,18,0.0,-999.0,80,0.00,,,0.00,WeatherSnoop3.0,2013-11-03 08:20:00,
2013-11-03 02:25:00,43.3,37.2,30.16,ESE,117,0.0,-999.0,79,0.00,,,0.00,WeatherSnoop3.0,2013-11-03 08:25:00,
2013-11-03 02:30:00,43.5,37.4,30.16,ESE,117,0.0,-999.0,79,0.00,,,0.00,WeatherSnoop3.0,2013-11-03 08:30:00,
2013-11-03 02:36:00,43.7,37.3,30.16,ESE,117,0.0,-999.0,78,0.00,,,0.00,WeatherSnoop3.0,2013-11-03 08:36:00,
2013-11-03 02:41:00,43.7,37.3,30.16,ESE,121,0.0,-999.0,78,0.00,,,0.00,WeatherSnoop3.0,2013-11-03 08:41:00,
2013-11-03 02:46:00,43.8,37.4,30.16,ESE,121,0.0,-999.0,78,0.00,,,0.00,WeatherSnoop3.0,2013-11-03 08:46:00,
2013-11-03 02:51:00,44.0,37.6,30.15,ESE,121,0.0,-999.0,78,0.00,,,0.00,WeatherSnoop3.0,2013-11-03 08:51:00,
2013-11-03 02:56:00,44.0,37.3,30.15,ESE,121,0.0,-999.0,77,0.00,,,0.00,WeatherSnoop3.0,2013-11-03 08:56:00,
2013-11-03 03:01:00,44.1,37.4,30.16,SE,134,0.0,-999.0,77,0.00,,,0.00,WeatherSnoop3.0,2013-11-03 09:01:00,
2013-11-03 03:06:00,44.3,37.2,30.15,SE,134,0.0,-999.0,76,0.00,,,0.00,WeatherSnoop3.0,2013-11-03 09:06:00,
2013-11-03 03:11:00,44.5,37.4,30.15,ESE,111,0.0,-999.0,76,0.00,,,0.00,WeatherSnoop3.0,2013-11-03 09:11:00,
2013-11-03 03:16:00,44.7,37.3,30.15,SE,126,0.0,-999.0,75,0.00,,,0.00,WeatherSnoop3.0,2013-11-03 09:16:00,
2013-11-03 03:21:00,44.9,37.5,30.15,ESE,112,2.0,-999.0,75,0.00,,,0.00,WeatherSnoop3.0,2013-11-03 09:21:00,
2013-11-03 03:26:00,45.1,37.3,30.15,SSE,165,0.0,-999.0,74,0.00,,,0.00,WeatherSnoop3.0,2013-11-03 09:26:00,
2013-11-03 03:31:00,45.2,37.4,30.15,SE,126,0.0,-999.0,74,0.00,,,0.00,WeatherSnoop3.0,2013-11-03 09:31:00,
2013-11-03 03:36:00,45.3,37.5,30.16,SSE,161,0.0,-999.0,74,0.00,,,0.00,WeatherSnoop3.0,2013-11-03 09:36:00,
2013-11-03 03:41:00,45.2,37.4,30.16,SSE,148,0.0,-999.0,74,0.00,,,0.00,WeatherSnoop3.0,2013-11-03 09:41:00,
2013-11-03 03:46:00,45.1,37.3,30.16,South,173,0.0,-999.0,74,0.00,,,0.00,WeatherSnoop3.0,2013-11-03 09:46:00,
2013-11-03 03:51:00,45.0,37.6,30.16,SSE,167,0.0,-999.0,75,0.00,,,0.00,WeatherSnoop3.0,2013-11-03 09:51:00,
2013-11-03 03:56:00,44.9,37.5,30.16,SSE,152,0.0,-999.0,75,0.00,,,0.00,WeatherSnoop3.0,2013-11-03 09:56:00,
2013-11-03 04:01:00,44.9,37.8,30.16,SSE,161,0.0,-999.0,76,0.00,,,0.00,WeatherSnoop3.0,2013-11-03 10:01:00,
2013-11-03 04:06:00,44.9,37.8,30.16,South,171,0.0,-999.0,76,0.00,,,0.00,WeatherSnoop3.0,2013-11-03 10:06:00,
2013-11-03 04:11:00,44.7,37.6,30.16,South,171,0.0,-999.0,76,0.00,,,0.00,WeatherSnoop3.0,2013-11-03 10:11:00,
2013-11-03 04:16:00,44.6,37.5,30.16,South,171,0.0,-999.0,76,0.00,,,0.00,WeatherSnoop3.0,2013-11-03 10:16:00,
2013-11-03 04:21:00,44.4,37.6,30.16,South,171,0.0,-999.0,77,0.00,,,0.00,WeatherSnoop3.0,2013-11-03 10:21:00,
2013-11-03 04:26:00,44.3,37.6,30.16,South,171,0.0,-999.0,77,0.00,,,0.00,WeatherSnoop3.0,2013-11-03 10:26:00,
2013-11-03 04:31:00,44.1,37.7,30.16,South,171,0.0,-999.0,78,0.00,,,0.00,WeatherSnoop3.0,2013-11-03 10:31:00,
2013-11-03 04:36:00,43.9,37.5,30.16,South,171,0.0,-999.0,78,0.00,,,0.00,WeatherSnoop3.0,2013-11-03 10:36:00,
2013-11-03 04:41:00,43.6,37.5,30.16,SE,142,0.0,-999.0,79,0.00,,,0.00,WeatherSnoop3.0,2013-11-03 10:41:00,
2013-11-03 04:46:00,43.5,37.4,30.16,SE,142,0.0,-999.0,79,0.00,,,0.00,WeatherSnoop3.0,2013-11-03 10:46:00,
2013-11-03 04:52:00,43.4,37.3,30.16,SE,142,0.0,-999.0,79,0.00,,,0.00,WeatherSnoop3.0,2013-11-03 10:52:00,
2013-11-03 04:57:00,43.4,37.6,30.16,SE,142,0.0,-999.0,80,0.00,,,0.00,WeatherSnoop3.0,2013-11-03 10:57:00,
2013-11-03 05:02:00,43.3,37.6,30.16,SE,142,0.0,-999.0,80,0.00,,,0.00,WeatherSnoop3.0,2013-11-03 11:02:00,
2013-11-03 05:07:00,43.4,37.6,30.16,SSE,159,0.0,-999.0,80,0.00,,,0.00,WeatherSnoop3.0,2013-11-03 11:07:00,
2013-11-03 05:12:00,43.5,37.4,30.16,South,173,0.0,-999.0,79,0.00,,,0.00,WeatherSnoop3.0,2013-11-03 11:12:00,
2013-11-03 05:17:00,43.6,37.5,30.16,SSE,161,2.0,-999.0,79,0.00,,,0.00,WeatherSnoop3.0,2013-11-03 11:17:00,
2013-11-03 05:23:00,43.6,37.5,30.16,SSE,151,1.0,-999.0,79,0.00,,,0.00,WeatherSnoop3.0,2013-11-03 11:23:00,
2013-11-03 05:28:00,43.6,37.5,30.16,SE,129,0.0,-999.0,79,0.00,,,0.00,WeatherSnoop3.0,2013-11-03 11:28:00,
2013-11-03 05:33:00,43.6,37.5,30.16,SSE,158,0.0,-999.0,79,0.00,,,0.00,WeatherSnoop3.0,2013-11-03 11:33:00,
2013-11-03 05:39:00,43.5,37.4,30.16,SE,144,0.0,-999.0,79,0.00,,,0.00,WeatherSnoop3.0,2013-11-03 11:39:00,
2013-11-03 05:44:00,43.4,37.3,30.16,SSE,159,0.0,-999.0,79,0.00,,,0.00,WeatherSnoop3.0,2013-11-03 11:44:00,
2013-11-03 05:49:00,43.2,37.5,30.16,SSE,159,0.0,-999.0,80,0.00,,,0.00,WeatherSnoop3.0,2013-11-03 11:49:00,
2013-11-03 05:54:00,43.1,37.4,30.16,SE,146,0.0,-999.0,80,0.00,,,0.00,WeatherSnoop3.0,2013-11-03 11:54:00,
2013-11-03 05:59:00,42.9,37.5,30.15,SE,130,0.0,-999.0,81,0.00,,,0.00,WeatherSnoop3.0,2013-11-03 11:59:00,
2013-11-03 06:04:00,42.8,37.4,30.15,SSE,167,0.0,-999.0,81,0.00,,,0.00,WeatherSnoop3.0,2013-11-03 12:04:00,
2013-11-03 06:09:00,42.7,37.3,30.15,SSE,152,0.0,-999.0,81,0.00,,,0.00,WeatherSnoop3.0,2013-11-03 12:09:00,
2013-11-03 06:14:00,42.7,37.3,30.15,SSE,160,0.0,-999.0,81,0.00,,,0.00,WeatherSnoop3.0,2013-11-03 12:14:00,
2013-11-03 06:19:00,42.6,37.5,30.15,SE,140,0.0,-999.0,82,0.00,,,0.00,WeatherSnoop3.0,2013-11-03 12:19:00,
2013-11-03 06:25:00,42.5,37.4,30.15,SE,130,0.0,-999.0,82,0.00,,,0.00,WeatherSnoop3.0,2013-11-03 12:25:00,
2013-11-03 06:30:00,42.6,37.8,30.15,ESE,106,2.0,-999.0,83,0.00,,,0.00,WeatherSnoop3.0,2013-11-03 12:30:00,
2013-11-03 06:35:00,42.5,37.7,30.15,ESE,118,0.0,-999.0,83,0.00,,,0.00,WeatherSnoop3.0,2013-11-03 12:35:00,
2013-11-03 06:40:00,42.4,37.6,30.15,ESE,117,0.0,-999.0,83,0.00,,,0.00,WeatherSnoop3.0,2013-11-03 12:40:00,
2013-11-03 06:45:00,42.3,37.5,30.15,ESE,118,0.0,-999.0,83,0.00,,,0.00,WeatherSnoop3.0,2013-11-03 12:45:00,
2013-11-03 06:50:00,42.2,37.7,30.16,ESE,119,0.0,-999.0,84,0.00,,,0.00,WeatherSnoop3.0,2013-11-03 12:50:00,
2013-11-03 06:55:00,42.1,37.6,30.16,ESE,119,0.0,-999.0,84,0.00,,,0.00,WeatherSnoop3.0,2013-11-03 12:55:00,
2013-11-03 07:00:00,42.0,37.8,30.16,SSE,165,0.0,-999.0,85,0.00,,,0.00,WeatherSnoop3.0,2013-11-03 13:00:00,
2013-11-03 07:05:00,41.9,37.7,30.15,ESE,119,0.0,-999.0,85,0.00,,,0.00,WeatherSnoop3.0,2013-11-03 13:05:00,
2013-11-03 07:10:00,41.9,37.7,30.15,SE,128,0.0,-999.0,85,0.00,,,0.00,WeatherSnoop3.0,2013-11-03 13:10:00,
2013-11-03 07:15:00,41.9,38.0,30.15,SE,131,0.0,-999.0,86,0.00,,,0.00,WeatherSnoop3.0,2013-11-03 13:15:00,
2013-11-03 07:20:00,42.0,38.1,30.15,SE,140,1.0,-999.0,86,0.00,,,0.00,WeatherSnoop3.0,2013-11-03 13:20:00,
2013-11-03 07:25:00,42.1,38.2,30.15,SE,128,0.0,-999.0,86,0.00,,,0.00,WeatherSnoop3.0,2013-11-03 13:25:00,
2013-11-03 07:30:00,42.2,38.0,30.15,ESE,111,0.0,-999.0,85,0.00,,,0.00,WeatherSnoop3.0,2013-11-03 13:30:00,
2013-11-03 07:35:00,42.4,38.2,30.15,ESE,103,2.0,-999.0,85,0.00,,,0.00,WeatherSnoop3.0,2013-11-03 13:35:00,
2013-11-03 07:40:00,42.7,38.2,30.15,East,86,6.0,-999.0,84,0.00,,,0.00,WeatherSnoop3.0,2013-11-03 13:40:00,
2013-11-03 07:45:00,43.0,38.5,30.15,SE,137,2.0,-999.0,84,0.00,,,0.00,WeatherSnoop3.0,2013-11-03 13:45:00,
2013-11-03 07:50:00,43.5,38.7,30.15,SE,132,0.0,-999.0,83,0.00,,,0.00,WeatherSnoop3.0,2013-11-03 13:50:00,
2013-11-03 07:55:00,44.2,39.1,30.15,SE,146,0.0,-999.0,82,0.00,,,0.00,WeatherSnoop3.0,2013-11-03 13:55:00,
2013-11-03 08:00:00,44.8,39.0,30.15,SSW,195,2.0,-999.0,80,0.00,,,0.00,WeatherSnoop3.0,2013-11-03 14:00:00,
2013-11-03 08:05:00,45.2,39.1,30.15,ESE,108,3.0,-999.0,79,0.00,,,0.00,WeatherSnoop3.0,2013-11-03 14:05:00,
2013-11-03 08:10:00,45.5,39.4,30.15,SSE,157,2.0,-999.0,79,0.00,,,0.00,WeatherSnoop3.0,2013-11-03 14:10:00,
2013-11-03 08:15:00,45.8,39.3,30.15,South,178,2.0,-999.0,78,0.00,,,0.00,WeatherSnoop3.0,2013-11-03 14:15:00,
2013-11-03 08:20:00,46.2,39.7,30.15,SSE,157,3.0,-999.0,78,0.00,,,0.00,WeatherSnoop3.0,2013-11-03 14:20:00,
2013-11-03 08:25:00,46.6,39.8,30.16,SE,146,3.0,-999.0,77,0.00,,,0.00,WeatherSnoop3.0,2013-11-03 14:25:00,
2013-11-03 08:30:00,47.0,39.8,30.16,SSE,163,2.0,-999.0,76,0.00,,,0.00,WeatherSnoop3.0,2013-11-03 14:30:00,
2013-11-03 08:35:00,47.6,40.1,30.16,SSW,210,3.0,-999.0,75,0.00,,,0.00,WeatherSnoop3.0,2013-11-03 14:35:00,
2013-11-03 08:40:00,47.9,40.4,30.15,SE,134,4.0,-999.0,75,0.00,,,0.00,WeatherSnoop3.0,2013-11-03 14:40:00,
2013-11-03 08:45:00,48.2,40.3,30.15,WSW,244,4.0,-999.0,74,0.00,,,0.00,WeatherSnoop3.0,2013-11-03 14:45:00,
2013-11-03 08:50:00,48.6,40.3,30.15,SSE,152,5.0,-999.0,73,0.00,,,0.00,WeatherSnoop3.0,2013-11-03 14:50:00,
2013-11-03 08:55:00,49.1,40.5,30.15,East,98,9.0,-999.0,72,0.00,,,0.00,WeatherSnoop3.0,2013-11-03 14:55:00,
2013-11-03 09:00:00,49.5,40.9,30.15,SE,141,4.0,-999.0,72,0.00,,,0.00,WeatherSnoop3.0,2013-11-03 15:00:00,
2013-11-03 09:05:00,50.2,41.5,30.15,South,186,6.0,-999.0,72,0.00,,,0.00,WeatherSnoop3.0,2013-11-03 15:05:00,
2013-11-03 09:10:00,50.8,41.4,30.15,ESE,118,0.0,-999.0,70,0.00,,,0.00,WeatherSnoop3.0,2013-11-03 15:10:00,
2013-11-03 09:15:00,51.4,41.2,30.15,SSW,192,2.0,-999.0,68,0.00,,,0.00,WeatherSnoop3.0,2013-11-03 15:15:00,
2013-11-03 09:20:00,51.9,41.3,30.15,SE,132,3.0,-999.0,67,0.00,,,0.00,WeatherSnoop3.0,2013-11-03 15:20:00,
2013-11-03 09:25:00,52.3,41.7,30.15,WSW,238,3.0,-999.0,67,0.00,,,0.00,WeatherSnoop3.0,2013-11-03 15:25:00,
2013-11-03 09:30:00,52.6,40.8,30.14,South,180,1.0,-999.0,64,0.00,,,0.00,WeatherSnoop3.0,2013-11-03 15:30:00,
2013-11-03 09:35:00,53.0,41.2,30.14,SE,137,8.0,-999.0,64,0.00,,,0.00,WeatherSnoop3.0,2013-11-03 15:35:00,
2013-11-03 09:40:00,53.1,41.2,30.14,WSW,258,7.0,-999.0,64,0.00,,,0.00,WeatherSnoop3.0,2013-11-03 15:40:00,
2013-11-03 09:46:00,53.3,41.0,30.14,ESE,123,8.0,-999.0,63,0.00,,,0.00,WeatherSnoop3.0,2013-11-03 15:46:00,
2013-11-03 09:51:00,53.5,41.2,30.14,SSE,153,14.0,-999.0,63,0.00,,,0.00,WeatherSnoop3.0,2013-11-03 15:51:00,
2013-11-03 09:56:00,54.0,41.3,30.14,SSW,194,4.0,-999.0,62,0.00,,,0.00,WeatherSnoop3.0,2013-11-03 15:56:00,
2013-11-03 10:01:00,54.1,41.8,30.14,SE,146,4.0,-999.0,63,0.00,,,0.00,WeatherSnoop3.0,2013-11-03 16:01:00,
2013-11-03 10:06:00,54.6,42.3,30.13,ESE,103,3.0,-999.0,63,0.00,,,0.00,WeatherSnoop3.0,2013-11-03 16:06:00,
2013-11-03 10:12:00,55.1,42.3,30.13,SE,138,3.0,-999.0,62,0.00,,,0.00,WeatherSnoop3.0,2013-11-03 16:12:00,
2013-11-03 10:17:00,55.6,41.5,30.13,SW,224,10.0,-999.0,59,0.00,,,0.00,WeatherSnoop3.0,2013-11-03 16:17:00,
2013-11-03 10:22:00,55.4,41.3,30.13,ESE,107,3.0,-999.0,59,0.00,,,0.00,WeatherSnoop3.0,2013-11-03 16:22:00,
2013-11-03 10:27:00,55.4,40.9,30.13,SSE,149,4.0,-999.0,58,0.00,,,0.00,WeatherSnoop3.0,2013-11-03 16:27:00,
2013-11-03 10:33:00,56.2,41.2,30.12,SW,232,2.0,-999.0,57,0.00,,,0.00,WeatherSnoop3.0,2013-11-03 16:33:00,
2013-11-03 10:38:00,56.7,41.2,30.12,SE,136,3.0,-999.0,56,0.00,,,0.00,WeatherSnoop3.0,2013-11-03 16:38:00,
2013-11-03 10:43:00,57.1,41.1,30.12,SE,136,14.0,-999.0,55,0.00,,,0.00,WeatherSnoop3.0,2013-11-03 16:43:00,
2013-11-03 10:49:00,57.3,40.3,30.12,SE,143,5.0,-999.0,53,0.00,,,0.00,WeatherSnoop3.0,2013-11-03 16:49:00,
2013-11-03 10:54:00,57.7,40.7,30.11,SE,137,5.0,-999.0,53,0.00,,,0.00,WeatherSnoop3.0,2013-11-03 16:54:00,
2013-11-03 10:59:00,58.2,40.7,30.11,SW,229,3.0,-999.0,52,0.00,,,0.00,WeatherSnoop3.0,2013-11-03 16:59:00,
2013-11-03 11:04:00,58.0,39.5,30.11,SSE,153,9.0,-999.0,50,0.00,,,0.00,WeatherSnoop3.0,2013-11-03 17:04:00,
2013-11-03 11:10:00,57.4,39.9,30.10,ESE,117,7.0,-999.0,52,0.00,,,0.00,WeatherSnoop3.0,2013-11-03 17:10:00,
2013-11-03 11:15:00,57.3,39.8,30.10,SE,124,4.0,-999.0,52,0.00,,,0.00,WeatherSnoop3.0,2013-11-03 17:15:00,
2013-11-03 11:21:00,57.5,40.5,30.09,SE,137,4.0,-999.0,53,0.00,,,0.00,WeatherSnoop3.0,2013-11-03 17:21:00,
2013-11-03 11:26:00,57.9,40.4,30.09,South,185,3.0,-999.0,52,0.00,,,0.00,WeatherSnoop3.0,2013-11-03 17:26:00,
2013-11-03 11:31:00,58.0,40.5,30.09,ESE,105,8.0,-999.0,52,0.00,,,0.00,WeatherSnoop3.0,2013-11-03 17:31:00,
2013-11-03 11:37:00,58.0,40.5,30.09,SE,132,4.0,-999.0,52,0.00,,,0.00,WeatherSnoop3.0,2013-11-03 17:37:00,
2013-11-03 11:42:00,58.0,40.5,30.08,ESE,105,8.0,-999.0,52,0.00,,,0.00,WeatherSnoop3.0,2013-11-03 17:42:00,
2013-11-03 11:47:00,58.7,41.1,30.08,SSE,155,8.0,-999.0,52,0.00,,,0.00,WeatherSnoop3.0,2013-11-03 17:47:00,
2013-11-03 11:52:00,59.6,40.9,30.08,ESE,114,8.0,-999.0,50,0.00,,,0.00,WeatherSnoop3.0,2013-11-03 17:52:00,
2013-11-03 11:57:00,59.9,40.2,30.08,SSE,156,4.0,-999.0,48,0.00,,,0.00,WeatherSnoop3.0,2013-11-03 17:57:00,
2013-11-03 12:02:00,60.1,40.3,30.08,SE,135,12.0,-999.0,48,0.00,,,0.00,WeatherSnoop3.0,2013-11-03 18:02:00,
2013-11-03 12:07:00,60.2,39.9,30.07,SE,143,6.0,-999.0,47,0.00,,,0.00,WeatherSnoop3.0,2013-11-03 18:07:00,
2013-11-03 12:12:00,59.9,40.2,30.08,South,174,5.0,-999.0,48,0.00,,,0.00,WeatherSnoop3.0,2013-11-03 18:12:00,
2013-11-03 12:17:00,59.9,40.2,30.07,SSW,200,1.0,-999.0,48,0.00,,,0.00,WeatherSnoop3.0,2013-11-03 18:17:00,
2013-11-03 12:23:00,59.9,40.7,30.07,SSW,209,5.0,-999.0,49,0.00,,,0.00,WeatherSnoop3.0,2013-11-03 18:23:00,
2013-11-03 12:28:00,60.5,41.8,30.06,South,171,5.0,-999.0,50,0.00,,,0.00,WeatherSnoop3.0,2013-11-03 18:28:00,
2013-11-03 12:33:00,61.4,41.5,30.06,SSE,148,3.0,-999.0,48,0.00,,,0.00,WeatherSnoop3.0,2013-11-03 18:33:00,
2013-11-03 12:38:00,61.7,41.8,30.06,SE,134,3.0,-999.0,48,0.00,,,0.00,WeatherSnoop3.0,2013-11-03 18:38:00,
2013-11-03 12:43:00,62.1,41.6,30.05,SSE,162,3.0,-999.0,47,0.00,,,0.00,WeatherSnoop3.0,2013-11-03 18:43:00,
2013-11-03 12:49:00,62.3,41.8,30.05,SE,134,5.0,-999.0,47,0.00,,,0.00,WeatherSnoop3.0,2013-11-03 18:49:00,
2013-11-03 12:54:00,61.8,41.4,30.04,South,191,6.0,-999.0,47,0.00,,,0.00,WeatherSnoop3.0,2013-11-03 18:54:00,
2013-11-03 12:59:00,61.3,40.9,30.04,ESE,105,4.0,-999.0,47,0.00,,,0.00,WeatherSnoop3.0,2013-11-03 18:59:00,
2013-11-03 13:05:00,61.2,41.4,30.03,SE,126,4.0,-999.0,48,0.00,,,0.00,WeatherSnoop3.0,2013-11-03 19:05:00,
2013-11-03 13:10:00,60.8,41.0,30.04,SSE,159,4.0,-999.0,48,0.00,,,0.00,WeatherSnoop3.0,2013-11-03 19:10:00,
2013-11-03 13:15:00,60.7,42.0,30.04,SSE,152,2.0,-999.0,50,0.00,,,0.00,WeatherSnoop3.0,2013-11-03 19:15:00,
2013-11-03 13:20:00,60.9,41.6,30.04,SE,138,1.0,-999.0,49,0.00,,,0.00,WeatherSnoop3.0,2013-11-03 19:20:00,
2013-11-03 13:25:00,61.3,40.9,30.04,South,181,3.0,-999.0,47,0.00,,,0.00,WeatherSnoop3.0,2013-11-03 19:25:00,
2013-11-03 13:30:00,61.3,40.3,30.04,ESE,123,5.0,-999.0,46,0.00,,,0.00,WeatherSnoop3.0,2013-11-03 19:30:00,
2013-11-03 13:35:00,61.3,40.3,30.03,SE,132,2.0,-999.0,46,0.00,,,0.00,WeatherSnoop3.0,2013-11-03 19:35:00,
2013-11-03 13:41:00,61.3,40.9,30.03,SE,143,2.0,-999.0,47,0.00,,,0.00,WeatherSnoop3.0,2013-11-03 19:41:00,
2013-11-03 13:46:00,61.4,41.0,30.03,SSE,156,0.0,-999.0,47,0.00,,,0.00,WeatherSnoop3.0,2013-11-03 19:46:00,
2013-11-03 13:51:00,61.5,41.1,30.03,ESE,111,4.0,-999.0,47,0.00,,,0.00,WeatherSnoop3.0,2013-11-03 19:51:00,
2013-11-03 13:56:00,61.7,39.6,30.02,SE,146,10.0,-999.0,44,0.00,,,0.00,WeatherSnoop3.0,2013-11-03 19:56:00,
2013-11-03 14:01:00,61.8,39.1,30.01,WSW,243,3.0,-999.0,43,0.00,,,0.00,WeatherSnoop3.0,2013-11-03 20:01:00,
2013-11-03 14:07:00,61.8,40.2,30.01,SSE,159,0.0,-999.0,45,0.00,,,0.00,WeatherSnoop3.0,2013-11-03 20:07:00,
2013-11-03 14:12:00,61.8,39.1,30.01,SSW,209,4.0,-999.0,43,0.00,,,0.00,WeatherSnoop3.0,2013-11-03 20:12:00,
2013-11-03 14:17:00,61.8,39.1,30.01,SW,215,9.0,-999.0,43,0.00,,,0.00,WeatherSnoop3.0,2013-11-03 20:17:00,
2013-11-03 14:23:00,61.6,38.9,29.99,SSE,147,1.0,-999.0,43,0.00,,,0.00,WeatherSnoop3.0,2013-11-03 20:23:00,
2013-11-03 14:28:00,61.4,38.7,30.00,South,180,2.0,-999.0,43,0.00,,,0.00,WeatherSnoop3.0,2013-11-03 20:28:00,
2013-11-03 14:33:00,61.3,38.6,30.00,SSE,148,1.0,-999.0,43,0.00,,,0.00,WeatherSnoop3.0,2013-11-03 20:33:00,
2013-11-03 14:39:00,61.3,39.2,30.01,SW,227,1.0,-999.0,44,0.00,,,0.00,WeatherSnoop3.0,2013-11-03 20:39:00,
2013-11-03 14:44:00,61.2,39.7,30.01,SE,146,3.0,-999.0,45,0.00,,,0.00,WeatherSnoop3.0,2013-11-03 20:44:00,
2013-11-03 14:49:00,61.1,40.2,30.00,SE,138,4.0,-999.0,46,0.00,,,0.00,WeatherSnoop3.0,2013-11-03 20:49:00,
2013-11-03 14:54:00,61.0,40.1,29.99,SSE,147,4.0,-999.0,46,0.00,,,0.00,WeatherSnoop3.0,2013-11-03 20:54:00,
2013-11-03 14:59:00,60.9,40.5,29.98,SE,130,6.0,-999.0,47,0.00,,,0.00,WeatherSnoop3.0,2013-11-03 20:59:00,
2013-11-03 15:04:00,60.9,40.0,29.99,SE,134,2.0,-999.0,46,0.00,,,0.00,WeatherSnoop3.0,2013-11-03 21:04:00,
2013-11-03 15:09:00,60.9,40.0,29.99,SE,132,1.0,-999.0,46,0.00,,,0.00,WeatherSnoop3.0,2013-11-03 21:09:00,
2013-11-03 15:14:00,60.9,40.5,30.00,SE,129,10.0,-999.0,47,0.00,,,0.00,WeatherSnoop3.0,2013-11-03 21:14:00,
2013-11-03 15:19:00,60.9,40.0,29.99,ESE,108,4.0,-999.0,46,0.00,,,0.00,WeatherSnoop3.0,2013-11-03 21:19:00,
2013-11-03 15:25:00,61.0,40.6,29.99,ESE,123,2.0,-999.0,47,0.00,,,0.00,WeatherSnoop3.0,2013-11-03 21:25:00,
2013-11-03 15:30:00,60.9,41.1,29.98,SSE,154,1.0,-999.0,48,0.00,,,0.00,WeatherSnoop3.0,2013-11-03 21:30:00,
2013-11-03 15:35:00,60.8,41.5,29.98,SSE,159,6.0,-999.0,49,0.00,,,0.00,WeatherSnoop3.0,2013-11-03 21:35:00,
2013-11-03 15:40:00,60.8,41.5,29.98,SSE,168,0.0,-999.0,49,0.00,,,0.00,WeatherSnoop3.0,2013-11-03 21:40:00,
2013-11-03 15:45:00,60.8,41.5,29.97,SSE,160,5.0,-999.0,49,0.00,,,0.00,WeatherSnoop3.0,2013-11-03 21:45:00,
2013-11-03 15:51:00,60.7,41.4,29.98,SSE,151,6.0,-999.0,49,0.00,,,0.00,WeatherSnoop3.0,2013-11-03 21:51:00,
2013-11-03 15:56:00,60.7,42.0,29.98,SSE,153,0.0,-999.0,50,0.00,,,0.00,WeatherSnoop3.0,2013-11-03 21:56:00,
2013-11-03 16:01:00,60.6,41.9,29.99,ESE,122,5.0,-999.0,50,0.00,,,0.00,WeatherSnoop3.0,2013-11-03 22:01:00,
2013-11-03 16:06:00,60.5,41.8,30.00,SE,144,3.0,-999.0,50,0.00,,,0.00,WeatherSnoop3.0,2013-11-03 22:06:00,
2013-11-03 16:11:00,60.5,41.8,29.99,ESE,121,0.0,-999.0,50,0.00,,,0.00,WeatherSnoop3.0,2013-11-03 22:11:00,
2013-11-03 16:16:00,60.4,42.2,29.99,SE,130,4.0,-999.0,51,0.00,,,0.00,WeatherSnoop3.0,2013-11-03 22:16:00,
2013-11-03 16:21:00,60.3,42.1,29.99,SE,141,0.0,-999.0,51,0.00,,,0.00,WeatherSnoop3.0,2013-11-03 22:21:00,
2013-11-03 16:26:00,60.3,42.1,29.99,South,179,3.0,-999.0,51,0.00,,,0.00,WeatherSnoop3.0,2013-11-03 22:26:00,
2013-11-03 16:32:00,60.3,42.1,29.99,East,100,3.0,-999.0,51,0.00,,,0.00,WeatherSnoop3.0,2013-11-03 22:32:00,
2013-11-03 16:37:00,60.3,41.6,29.99,ESE,105,2.0,-999.0,50,0.00,,,0.00,WeatherSnoop3.0,2013-11-03 22:37:00,
2013-11-03 16:42:00,60.3,41.6,29.98,ESE,115,2.0,-999.0,50,0.00,,,0.00,WeatherSnoop3.0,2013-11-03 22:42:00,
2013-11-03 16:47:00,60.3,41.6,29.98,SE,131,5.0,-999.0,50,0.00,,,0.00,WeatherSnoop3.0,2013-11-03 22:47:00,
2013-11-03 16:53:00,60.3,41.6,29.98,SSE,155,5.0,-999.0,50,0.00,,,0.00,WeatherSnoop3.0,2013-11-03 22:53:00,
2013-11-03 16:58:00,60.3,41.1,29.98,SE,144,4.0,-999.0,49,0.00,,,0.00,WeatherSnoop3.0,2013-11-03 22:58:00,
2013-11-03 17:03:00,60.3,41.1,29.97,SSE,152,6.0,-999.0,49,0.00,,,0.00,WeatherSnoop3.0,2013-11-03 23:03:00,
2013-11-03 17:08:00,60.4,41.2,29.97,SSE,155,6.0,-999.0,49,0.00,,,0.00,WeatherSnoop3.0,2013-11-03 23:08:00,
2013-11-03 17:13:00,60.3,41.1,29.97,SSE,148,4.0,-999.0,49,0.00,,,0.00,WeatherSnoop3.0,2013-11-03 23:13:00,
2013-11-03 17:18:00,60.2,41.0,29.96,SW,221,4.0,-999.0,49,0.00,,,0.00,WeatherSnoop3.0,2013-11-03 23:18:00,
2013-11-03 17:23:00,60.0,41.3,29.96,SE,142,2.0,-999.0,50,0.00,,,0.00,WeatherSnoop3.0,2013-11-03 23:23:00,
2013-11-03 17:28:00,59.9,41.7,29.96,SE,130,1.0,-999.0,51,0.00,,,0.00,WeatherSnoop3.0,2013-11-03 23:28:00,
2013-11-03 17:34:00,59.8,42.1,29.97,SSE,166,5.0,-999.0,52,0.00,,,0.00,WeatherSnoop3.0,2013-11-03 23:34:00,
2013-11-03 17:39:00,59.5,41.9,29.95,ESE,117,7.0,-999.0,52,0.00,,,0.00,WeatherSnoop3.0,2013-11-03 23:39:00,
2013-11-03 17:44:00,59.4,42.3,29.95,ESE,110,4.0,-999.0,53,0.00,,,0.00,WeatherSnoop3.0,2013-11-03 23:44:00,
2013-11-03 17:50:00,59.3,42.2,29.96,SE,146,5.0,-999.0,53,0.00,,,0.00,WeatherSnoop3.0,2013-11-03 23:50:00,
2013-11-03 17:55:00,59.3,42.2,29.97,SSE,147,6.0,-999.0,53,0.00,,,0.00,WeatherSnoop3.0,2013-11-03 23:55:00,
2013-11-03 18:00:00,59.3,42.2,29.97,ESE,113,5.0,-999.0,53,0.00,,,0.00,WeatherSnoop3.0,2013-11-04 00:00:00,
2013-11-03 18:05:00,59.2,42.1,29.99,SE,144,4.0,-999.0,53,0.00,,,0.00,WeatherSnoop3.0,2013-11-04 00:05:00,
2013-11-03 18:10:00,59.3,42.2,30.01,SW,229,3.0,-999.0,53,0.00,,,0.00,WeatherSnoop3.0,2013-11-04 00:10:00,
2013-11-03 18:16:00,59.2,42.1,30.01,SE,134,7.0,-999.0,53,0.00,,,0.00,WeatherSnoop3.0,2013-11-04 00:16:00,
2013-11-03 18:21:00,59.0,42.4,29.99,ESE,121,4.0,-999.0,54,0.00,,,0.00,WeatherSnoop3.0,2013-11-04 00:21:00,
2013-11-03 18:27:00,58.9,42.3,29.99,SE,132,6.0,-999.0,54,0.00,,,0.00,WeatherSnoop3.0,2013-11-04 00:27:00,
2013-11-03 18:32:00,58.8,42.2,29.97,SE,143,5.0,-999.0,54,0.00,,,0.00,WeatherSnoop3.0,2013-11-04 00:32:00,
2013-11-03 18:37:00,58.7,42.6,29.96,SE,142,3.0,-999.0,55,0.00,,,0.00,WeatherSnoop3.0,2013-11-04 00:37:00,
2013-11-03 18:43:00,58.7,42.6,29.97,SE,126,6.0,-999.0,55,0.00,,,0.00,WeatherSnoop3.0,2013-11-04 00:43:00,
2013-11-03 18:48:00,58.6,42.5,29.96,SSE,152,2.0,-999.0,55,0.00,,,0.00,WeatherSnoop3.0,2013-11-04 00:48:00,
2013-11-03 18:53:00,58.5,42.9,29.97,SE,134,5.0,-999.0,56,0.00,,,0.00,WeatherSnoop3.0,2013-11-04 00:53:00,
2013-11-03 18:58:00,58.5,42.9,29.98,SSE,156,3.0,-999.0,56,0.00,,,0.00,WeatherSnoop3.0,2013-11-04 00:58:00,
2013-11-03 19:03:00,58.4,42.8,29.98,SE,128,4.0,-999.0,56,0.00,,,0.00,WeatherSnoop3.0,2013-11-04 01:03:00,
2013-11-03 19:09:00,58.4,43.2,29.97,SSE,167,8.0,-999.0,57,0.00,,,0.00,WeatherSnoop3.0,2013-11-04 01:09:00,
2013-11-03 19:14:00,58.4,43.2,29.98,SSW,192,7.0,-999.0,57,0.00,,,0.00,WeatherSnoop3.0,2013-11-04 01:14:00,
2013-11-03 19:19:00,58.3,43.1,29.98,ENE,68,2.0,-999.0,57,0.00,,,0.00,WeatherSnoop3.0,2013-11-04 01:19:00,
2013-11-03 19:24:00,58.3,43.6,29.98,ESE,107,2.0,-999.0,58,0.00,,,0.00,WeatherSnoop3.0,2013-11-04 01:24:00,
2013-11-03 19:29:00,58.3,43.6,29.99,East,88,0.0,-999.0,58,0.00,,,0.00,WeatherSnoop3.0,2013-11-04 01:29:00,
2013-11-03 19:34:00,58.2,43.5,30.00,SE,127,3.0,-999.0,58,0.00,,,0.00,WeatherSnoop3.0,2013-11-04 01:34:00,
2013-11-03 19:40:00,58.3,43.6,30.00,WSW,239,7.0,-999.0,58,0.00,,,0.00,WeatherSnoop3.0,2013-11-04 01:40:00,
2013-11-03 19:45:00,58.2,43.5,29.99,SE,146,3.0,-999.0,58,0.00,,,0.00,WeatherSnoop3.0,2013-11-04 01:45:00,
2013-11-03 19:51:00,58.1,43.4,29.99,SSE,159,2.0,-999.0,58,0.00,,,0.00,WeatherSnoop3.0,2013-11-04 01:51:00,
2013-11-03 19:56:00,58.1,43.4,30.00,SE,140,6.0,-999.0,58,0.00,,,0.00,WeatherSnoop3.0,2013-11-04 01:56:00,
2013-11-03 20:02:00,58.0,43.3,30.00,SSE,156,3.0,-999.0,58,0.00,,,0.00,WeatherSnoop3.0,2013-11-04 02:02:00,
2013-11-03 20:07:00,58.0,43.3,30.00,SSW,204,5.0,-999.0,58,0.00,,,0.00,WeatherSnoop3.0,2013-11-04 02:07:00,
2013-11-03 20:12:00,57.9,43.2,30.00,South,185,2.0,-999.0,58,0.00,,,0.00,WeatherSnoop3.0,2013-11-04 02:12:00,
2013-11-03 20:17:00,57.9,43.2,30.00,SSW,192,1.0,-999.0,58,0.00,,,0.00,WeatherSnoop3.0,2013-11-04 02:17:00,
2013-11-03 20:22:00,57.9,43.2,30.00,SSE,156,6.0,-999.0,58,0.00,,,0.00,WeatherSnoop3.0,2013-11-04 02:22:00,
2013-11-03 20:27:00,57.9,43.2,30.00,SE,141,4.0,-999.0,58,0.00,,,0.00,WeatherSnoop3.0,2013-11-04 02:27:00,
2013-11-03 20:32:00,57.8,43.6,29.98,SE,127,4.0,-999.0,59,0.00,,,0.00,WeatherSnoop3.0,2013-11-04 02:32:00,
2013-11-03 20:37:00,57.7,43.5,29.99,East,100,6.0,-999.0,59,0.00,,,0.00,WeatherSnoop3.0,2013-11-04 02:37:00,
2013-11-03 20:43:00,57.6,43.8,29.99,SE,144,7.0,-999.0,60,0.00,,,0.00,WeatherSnoop3.0,2013-11-04 02:43:00,
2013-11-03 20:48:00,57.5,43.7,29.99,SE,145,6.0,-999.0,60,0.00,,,0.00,WeatherSnoop3.0,2013-11-04 02:48:00,
2013-11-03 20:53:00,57.5,43.7,29.99,SE,146,4.0,-999.0,60,0.00,,,0.00,WeatherSnoop3.0,2013-11-04 02:53:00,
2013-11-03 20:58:00,57.5,43.7,29.98,ESE,114,0.0,-999.0,60,0.00,,,0.00,WeatherSnoop3.0,2013-11-04 02:58:00,
2013-11-03 21:04:00,57.4,43.6,29.98,SSE,153,3.0,-999.0,60,0.00,,,0.00,WeatherSnoop3.0,2013-11-04 03:04:00,
2013-11-03 21:09:00,57.4,43.6,29.96,ESE,105,4.0,-999.0,60,0.00,,,0.00,WeatherSnoop3.0,2013-11-04 03:09:00,
2013-11-03 21:14:00,57.2,43.9,29.96,ESE,111,2.0,-999.0,61,0.00,,,0.00,WeatherSnoop3.0,2013-11-04 03:14:00,
2013-11-03 21:19:00,57.2,43.9,29.95,ESE,113,7.0,-999.0,61,0.00,,,0.00,WeatherSnoop3.0,2013-11-04 03:19:00,
2013-11-03 21:24:00,57.1,43.8,29.96,SE,129,9.0,-999.0,61,0.00,,,0.00,WeatherSnoop3.0,2013-11-04 03:24:00,
2013-11-03 21:30:00,57.1,43.8,29.96,SE,138,2.0,-999.0,61,0.00,,,0.00,WeatherSnoop3.0,2013-11-04 03:30:00,
2013-11-03 21:35:00,57.1,43.3,29.97,SW,236,4.0,-999.0,60,0.00,,,0.00,WeatherSnoop3.0,2013-11-04 03:35:00,
2013-11-03 21:40:00,57.1,43.8,29.99,SW,225,6.0,-999.0,61,0.00,,,0.00,WeatherSnoop3.0,2013-11-04 03:40:00,
2013-11-03 21:45:00,57.1,43.8,29.99,SW,219,0.0,-999.0,61,0.00,,,0.00,WeatherSnoop3.0,2013-11-04 03:45:00,
2013-11-03 21:50:00,57.0,43.7,29.99,SE,126,3.0,-999.0,61,0.00,,,0.00,WeatherSnoop3.0,2013-11-04 03:50:00,
2013-11-03 21:55:00,56.9,43.6,29.99,ESE,103,5.0,-999.0,61,0.00,,,0.00,WeatherSnoop3.0,2013-11-04 03:55:00,
2013-11-03 22:00:00,56.9,43.6,29.99,SE,140,9.0,-999.0,61,0.00,,,0.00,WeatherSnoop3.0,2013-11-04 04:00:00,
2013-11-03 22:06:00,56.9,43.6,30.00,SE,124,7.0,-999.0,61,0.00,,,0.00,WeatherSnoop3.0,2013-11-04 04:06:00,
2013-11-03 22:11:00,56.9,43.6,29.99,SE,138,4.0,-999.0,61,0.00,,,0.00,WeatherSnoop3.0,2013-11-04 04:11:00,
2013-11-03 22:16:00,56.9,43.6,29.99,SSE,164,4.0,-999.0,61,0.00,,,0.00,WeatherSnoop3.0,2013-11-04 04:16:00,
2013-11-03 22:21:00,56.8,43.5,29.99,ESE,109,3.0,-999.0,61,0.00,,,0.00,WeatherSnoop3.0,2013-11-04 04:21:00,
2013-11-03 22:27:00,56.8,43.5,29.99,ESE,111,12.0,-999.0,61,0.00,,,0.00,WeatherSnoop3.0,2013-11-04 04:27:00,
2013-11-03 22:32:00,56.9,43.6,29.98,South,191,3.0,-999.0,61,0.00,,,0.00,WeatherSnoop3.0,2013-11-04 04:32:00,
2013-11-03 22:37:00,56.8,43.5,29.98,ESE,103,7.0,-999.0,61,0.00,,,0.00,WeatherSnoop3.0,2013-11-04 04:37:00,
2013-11-03 22:42:00,56.8,43.5,29.97,SSE,164,3.0,-999.0,61,0.00,,,0.00,WeatherSnoop3.0,2013-11-04 04:42:00,
2013-11-03 22:48:00,56.8,43.5,29.97,SE,140,6.0,-999.0,61,0.00,,,0.00,WeatherSnoop3.0,2013-11-04 04:48:00,
2013-11-03 22:53:00,56.8,43.5,29.98,East,97,7.0,-999.0,61,0.00,,,0.00,WeatherSnoop3.0,2013-11-04 04:53:00,
2013-11-03 22:58:00,56.8,43.9,29.98,South,174,3.0,-999.0,62,0.00,,,0.00,WeatherSnoop3.0,2013-11-04 04:58:00,
2013-11-03 23:01:00,56.7,43.8,29.98,SSE,165,0.0,-999.0,62,0.00,,,0.00,WeatherSnoop3.0,2013-11-04 05:01:00,
2013-11-03 23:02:00,56.7,43.8,29.98,SSE,162,4.0,-999.0,62,0.00,,,0.00,WeatherSnoop3.0,2013-11-04 05:02:00,
2013-11-03 23:03:00,56.7,43.8,29.98,SSE,162,4.0,-999.0,62,0.00,,,0.00,WeatherSnoop3.0,2013-11-04 05:03:00,
2013-11-03 23:04:00,56.7,43.8,29.98,SSW,198,1.0,-999.0,62,0.00,,,0.00,WeatherSnoop3.0,2013-11-04 05:04:00,
2013-11-03 23:06:00,56.7,43.8,29.97,SSW,195,0.0,-999.0,62,0.00,,,0.00,WeatherSnoop3.0,2013-11-04 05:06:00,
2013-11-03 23:11:00,56.6,43.7,29.98,South,181,0.0,-999.0,62,0.00,,,0.00,WeatherSnoop3.0,2013-11-04 05:11:00,
2013-11-03 23:16:00,56.6,43.7,29.97,SE,145,1.0,-999.0,62,0.00,,,0.00,WeatherSnoop3.0,2013-11-04 05:16:00,
2013-11-03 23:22:00,56.6,43.7,29.97,SW,216,6.0,-999.0,62,0.00,,,0.00,WeatherSnoop3.0,2013-11-04 05:22:00,
2013-11-03 23:27:00,56.6,43.7,29.95,SE,129,3.0,-999.0,62,0.00,,,0.00,WeatherSnoop3.0,2013-11-04 05:27:00,
2013-11-03 23:32:00,56.6,43.7,29.96,SE,140,11.0,-999.0,62,0.00,,,0.00,WeatherSnoop3.0,2013-11-04 05:32:00,
2013-11-03 23:38:00,56.6,43.7,29.95,SSE,163,2.0,-999.0,62,0.00,,,0.00,WeatherSnoop3.0,2013-11-04 05:38:00,
2013-11-03 23:43:00,56.6,43.7,29.95,South,170,5.0,-999.0,62,0.00,,,0.00,WeatherSnoop3.0,2013-11-04 05:43:00,
2013-11-03 23:48:00,56.6,43.7,29.96,South,171,1.0,-999.0,62,0.00,,,0.00,WeatherSnoop3.0,2013-11-04 05:48:00,
2013-11-03 23:53:00,56.6,43.7,29.96,WSW,244,10.0,-999.0,62,0.00,,,0.00,WeatherSnoop3.0,2013-11-04 05:53:00,
2013-11-03 23:59:00,56.5,44.1,29.96,SE,130,7.0,-999.0,63,0.00,,,0.00,WeatherSnoop3.0,2013-11-04 05:59:00,